New Bern, NC

10:11 PM EST on November 11, 2019 (GMT -0500)
Craven County Regional

Weather History for KEWN - October, 2019

Change the Weather History Date:

Monday, October 21, 2019

  Actual Average Record
Temperature  
Mean Temperature 62 °F 62 °F  
Max Temperature 64 °F 73 °F 87 °F (1984)
Min Temperature 59 °F 51 °F 34 °F (1952)
Degree Days  
Heating Degree Days 3 5  
Month to date heating degree days 36 54  
Since 1 July heating degree days 36 61  
Cooling Degree Days 0 2  
Month to date cooling degree days 99 68  
Year to date cooling degree days 2246 1871  
Growing Degree Days 12 (Base 50)    
Moisture  
Dew Point 58 °F    
Average Humidity 89    
Maximum Humidity 97    
Minimum Humidity 81    
Precipitation  
Precipitation 0.00 in 0.10 in 2.31 in (1958)
Month to date precipitation 2.11 2.33  
Year to date precipitation 38.90 45.02  
Snow  
Snow 0.00 in - - ()
Month to date snowfall 0.0  
Since 1 July snowfall 0.0  
Snow Depth 0.00 in    
Sea Level Pressure  
Sea Level Pressure 30.05 in    
Wind  
Wind Speed 7 mph ()    
Max Wind Speed 15 mph    
Max Gust Speed 21 mph    
Visibility 10.0 miles    
Events      
T = Trace of Precipitation, MM = Missing Value Source: Averaged Metar Reports

Daily Weather History Graph

Daily Weather History Graph

Search for Another Location

Airport or City:

Astronomy

Oct. 21, 2019 Rise Set
Actual Time 7:19 AM EDT 6:25 PM EDT
Civil Twilight 6:53 AM EDT 6:51 PM EDT
Nautical Twilight 6:23 AM EDT 7:21 PM EDT
Astronomical Twilight 5:54 AM EDT 7:50 PM EDT
Moon No Moon Rise 2:27 PM EDT (10/21)
Length of Visible Light 11h 58m
Length of Day
11h 06m
Waning Gibbous, 48% of the Moon is Illuminated
Oct 21
Waning Gibbous
Oct 27
New
Nov 4
First Quarter
Nov 12
Full
Nov 19
Last Quarter

Hourly Weather History & Observations

Time (EDT) Temp. Dew Point Humidity Pressure Visibility Wind Dir Wind Speed Gust Speed Precip Events Conditions
12:54 AM 60.1 °F 57.9 °F 93% 29.94 in 10.0 mi NNW 13.8 mph 20.7 mph N/A   Overcast
1:54 AM 60.1 °F 57.9 °F 93% 29.95 in 10.0 mi NNW 8.1 mph - N/A   Overcast
2:54 AM 60.1 °F 59.0 °F 96% 29.96 in 10.0 mi NNW 8.1 mph - N/A   Overcast
3:54 AM 60.1 °F 57.9 °F 93% 29.96 in 10.0 mi NNW 8.1 mph - N/A   Overcast
4:54 AM 60.1 °F 57.9 °F 93% 29.98 in 10.0 mi North 8.1 mph - N/A   Overcast
5:07 AM 60.1 °F 57.0 °F 90% 29.99 in 10.0 mi NNW 11.5 mph - N/A   Overcast
5:54 AM 59.0 °F 57.0 °F 93% 30.01 in 10.0 mi North 9.2 mph - N/A   Overcast
6:27 AM 59.0 °F 57.0 °F 93% 30.01 in 10.0 mi North 8.1 mph - N/A   Overcast
6:54 AM 59.0 °F 57.0 °F 93% 30.02 in 10.0 mi North 11.5 mph - N/A   Overcast
7:12 AM 59.0 °F 57.0 °F 93% 30.02 in 10.0 mi North 9.2 mph - N/A   Overcast
7:28 AM 59.0 °F 57.0 °F 93% 30.03 in 10.0 mi North 10.4 mph - N/A   Overcast
7:54 AM 59.0 °F 57.0 °F 93% 30.04 in 10.0 mi North 6.9 mph - N/A   Overcast
8:54 AM 60.1 °F 57.9 °F 93% 30.06 in 10.0 mi North 9.2 mph - N/A   Overcast
9:54 AM 60.1 °F 57.9 °F 93% 30.09 in 10.0 mi North 8.1 mph - N/A   Overcast
10:40 AM 61.0 °F 57.9 °F 90% 30.09 in 10.0 mi NNW 8.1 mph - N/A   Overcast
10:54 AM 61.0 °F 57.9 °F 90% 30.09 in 10.0 mi NNE 6.9 mph - N/A   Overcast
11:54 AM 62.1 °F 57.9 °F 86% 30.09 in 10.0 mi North 4.6 mph - N/A   Overcast
12:54 PM 63.0 °F 59.0 °F 87% 30.10 in 10.0 mi North 5.8 mph - N/A   Overcast
1:20 PM 64.9 °F 59.0 °F 81% 30.09 in 10.0 mi NE 6.9 mph - N/A   Overcast
1:54 PM 64.9 °F 59.0 °F 81% 30.08 in 10.0 mi North 4.6 mph - N/A   Overcast
2:54 PM 64.9 °F 59.0 °F 81% 30.06 in 10.0 mi NNE 4.6 mph - N/A   Overcast
3:54 PM 64.9 °F 59.0 °F 81% 30.08 in 10.0 mi Calm Calm - N/A   Overcast
4:54 PM 64.9 °F 59.0 °F 81% 30.08 in 10.0 mi NNE 3.5 mph - N/A   Overcast
5:54 PM 64.0 °F 59.0 °F 84% 30.08 in 10.0 mi Variable 3.5 mph - N/A   Overcast
6:54 PM 63.0 °F 59.0 °F 87% 30.08 in 10.0 mi East 4.6 mph - N/A   Overcast
7:45 PM 63.0 °F 59.0 °F 87% 30.09 in 10.0 mi East 4.6 mph - N/A   Overcast
7:54 PM 63.0 °F 59.0 °F 87% 30.09 in 10.0 mi East 4.6 mph - N/A   Overcast
8:54 PM 63.0 °F 59.0 °F 87% 30.09 in 10.0 mi East 4.6 mph - N/A   Overcast
9:54 PM 62.1 °F 59.0 °F 90% 30.10 in 10.0 mi East 3.5 mph - N/A   Overcast
10:54 PM 62.1 °F 59.0 °F 90% 30.10 in 10.0 mi Calm Calm - N/A   Overcast
11:54 PM 62.1 °F 59.0 °F 90% 30.11 in 10.0 mi Calm Calm - N/A   Overcast